owner,sensor,date,latitude,longitude,vertical_datum,direction_of_sea_water_velocity,sea_water_speed,upward_sea_water_velocity,qcFlag 
TABS,ioos:station:wmo:42051:1,1999-10-01T00:00:00Z,29.6350,-93.6417,2.0,276.6770203,14.10566198,-99999.0,'11111222,11111222,99999999' 
TABS,ioos:station:wmo:42051:1,1999-10-01T00:30:00Z,29.6350,-93.6417,2.0,264.8051623,16.45758792,-99999.0,'11111222,11111222,99999999' 
TABS,ioos:station:wmo:42051:1,1999-10-01T01:00:00Z,29.6350,-93.6417,2.0,264.6462489,14.362646,-99999.0,'11111222,11111222,99999999' 
TABS,ioos:station:wmo:42051:1,1999-10-01T01:30:00Z,29.6350,-93.6417,2.0,263.7184959,14.98998332,-99999.0,'11111222,11111222,99999999' 
TABS,ioos:station:wmo:42051:1,1999-10-01T02:00:00Z,29.6350,-93.6417,2.0,261.9518808,12.78591804,-99999.0,'11111222,11111222,99999999' 
TABS,ioos:station:wmo:42051:1,1999-10-01T02:30:00Z,29.6350,-93.6417,2.0,268.4416047,11.03407903,-99999.0,'11111222,11111222,99999999' 
TABS,ioos:station:wmo:42051:1,1999-10-01T03:00:00Z,29.6350,-93.6417,2.0,265.7369779,8.07232928,-99999.0,'11133222,11111222,99999999' 
TABS,ioos:station:wmo:42051:1,1999-10-01T03:30:00Z,29.6350,-93.6417,2.0,256.2222047,7.516255717,-99999.0,'11133222,11111222,99999999' 
TABS,ioos:station:wmo:42051:1,1999-10-01T04:00:00Z,29.6350,-93.6417,2.0,247.0602974,8.415515433,-99999.0,'11133222,11111222,99999999' 
TABS,ioos:station:wmo:42051:1,1999-10-01T04:30:00Z,29.6350,-93.6417,2.0,246.693975,10.53998577,-99999.0,'11111222,11111222,99999999' 
TABS,ioos:station:wmo:42051:1,1999-10-01T05:00:00Z,29.6350,-93.6417,2.0,245.294185,10.33607759,-99999.0,'11111222,11111222,99999999' 
TABS,ioos:station:wmo:42051:1,1999-10-01T05:30:00Z,29.6350,-93.6417,2.0,243.463067,8.997938653,-99999.0,'11133222,11111222,99999999' 
TABS,ioos:station:wmo:42051:1,1999-10-01T06:00:00Z,29.6350,-93.6417,2.0,244.8931917,7.730355749,-99999.0,'11133222,11111222,99999999' 
TABS,ioos:station:wmo:42051:1,1999-10-01T06:30:00Z,29.6350,-93.6417,2.0,241.0568979,6.467804883,-99999.0,'11133222,11111222,99999999' 
TABS,ioos:station:wmo:42051:1,1999-10-01T07:00:00Z,29.6350,-93.6417,2.0,237.2713743,4.956944623,-99999.0,'11133222,11111222,99999999' 
TABS,ioos:station:wmo:42051:1,1999-10-01T07:30:00Z,29.6350,-93.6417,2.0,236.3095903,5.913104092,-99999.0,'11133222,11111222,99999999' 
TABS,ioos:station:wmo:42051:1,1999-10-01T08:00:00Z,29.6350,-93.6417,2.0,230.9027949,9.212958265,-99999.0,'11133222,11111222,99999999' 
TABS,ioos:station:wmo:42051:1,1999-10-01T08:30:00Z,29.6350,-93.6417,2.0,244.662166,9.393641466,-99999.0,'11133222,11111222,99999999' 
TABS,ioos:station:wmo:42051:1,1999-10-01T09:00:00Z,29.6350,-93.6417,2.0,240.8059645,11.60398638,-99999.0,'11111222,11111222,99999999' 
TABS,ioos:station:wmo:42051:1,1999-10-01T09:30:00Z,29.6350,-93.6417,2.0,248.6340077,13.91641118,-99999.0,'11111222,11111222,99999999' 
TABS,ioos:station:wmo:42051:1,1999-10-01T10:00:00Z,29.6350,-93.6417,2.0,248.5104279,10.56436463,-99999.0,'11111222,11111222,99999999' 
TABS,ioos:station:wmo:42051:1,1999-10-01T10:30:00Z,29.6350,-93.6417,2.0,244.7160171,12.19856549,-99999.0,'11111222,11111222,99999999' 
TABS,ioos:station:wmo:42051:1,1999-10-01T11:00:00Z,29.6350,-93.6417,2.0,245.105626,13.80240921,-99999.0,'11111222,11111222,99999999' 
TABS,ioos:station:wmo:42051:1,1999-10-01T11:30:00Z,29.6350,-93.6417,2.0,241.8108963,14.20473513,-99999.0,'11111222,11111222,99999999' 
TABS,ioos:station:wmo:42051:1,1999-10-01T12:00:00Z,29.6350,-93.6417,2.0,242.010406,16.19413474,-99999.0,'11111222,11111222,99999999' 
TABS,ioos:station:wmo:42051:1,1999-10-01T12:30:00Z,29.6350,-93.6417,2.0,239.8512836,16.02816583,-99999.0,'11111222,11111222,99999999' 
TABS,ioos:station:wmo:42051:1,1999-10-01T13:00:00Z,29.6350,-93.6417,2.0,241.0064946,17.20633895,-99999.0,'11111222,11111222,99999999' 
TABS,ioos:station:wmo:42051:1,1999-10-01T13:30:00Z,29.6350,-93.6417,2.0,240.6627701,17.94083889,-99999.0,'11111222,11111222,99999999' 
TABS,ioos:station:wmo:42051:1,1999-10-01T14:00:00Z,29.6350,-93.6417,2.0,239.6114483,15.02403408,-99999.0,'11111222,11111222,99999999' 
TABS,ioos:station:wmo:42051:1,1999-10-01T14:30:00Z,29.6350,-93.6417,2.0,237.8053172,12.8567842,-99999.0,'11111222,11111222,99999999' 
TABS,ioos:station:wmo:42051:1,1999-10-01T15:00:00Z,29.6350,-93.6417,2.0,234.7842891,12.39916933,-99999.0,'11111222,11111222,99999999' 
TABS,ioos:station:wmo:42051:1,1999-10-01T15:30:00Z,29.6350,-93.6417,2.0,239.5744718,12.95386043,-99999.0,'11111222,11111222,99999999' 
TABS,ioos:station:wmo:42051:1,1999-10-01T16:00:00Z,29.6350,-93.6417,2.0,239.836965,12.75731163,-99999.0,'11111222,11111222,99999999' 
TABS,ioos:station:wmo:42051:1,1999-10-01T16:30:00Z,29.6350,-93.6417,2.0,247.4057677,13.56077063,-99999.0,'11111222,11111222,99999999' 
TABS,ioos:station:wmo:42051:1,1999-10-01T17:00:00Z,29.6350,-93.6417,2.0,232.9988869,11.3820297,-99999.0,'11111222,11111222,99999999' 
TABS,ioos:station:wmo:42051:1,1999-10-01T17:30:00Z,29.6350,-93.6417,2.0,238.0066229,9.833600561,-99999.0,'11133222,11111222,99999999' 
TABS,ioos:station:wmo:42051:1,1999-10-01T18:00:00Z,29.6350,-93.6417,2.0,240.8059645,11.60398638,-99999.0,'11111222,11111222,99999999' 
TABS,ioos:station:wmo:42051:1,1999-10-01T18:30:00Z,29.6350,-93.6417,2.0,235.7473853,12.43697712,-99999.0,'11111222,11111222,99999999' 
TABS,ioos:station:wmo:42051:1,1999-10-01T19:00:00Z,29.6350,-93.6417,2.0,242.1387317,5.734744981,-99999.0,'11133222,11111222,99999999' 
TABS,ioos:station:wmo:42051:1,1999-10-01T19:30:00Z,29.6350,-93.6417,2.0,247.492869,4.676162957,-99999.0,'11133222,11111222,99999999' 
TABS,ioos:station:wmo:42051:1,1999-10-01T20:00:00Z,29.6350,-93.6417,2.0,255.4948397,4.152348733,-99999.0,'11133222,11111222,99999999' 
TABS,ioos:station:wmo:42051:1,1999-10-01T20:30:00Z,29.6350,-93.6417,2.0,255.9916347,4.916197718,-99999.0,'11133222,11111222,99999999' 
TABS,ioos:station:wmo:42051:1,1999-10-01T21:00:00Z,29.6350,-93.6417,2.0,254.5092822,7.263855725,-99999.0,'11133222,11111222,99999999' 
TABS,ioos:station:wmo:42051:1,1999-10-01T21:30:00Z,29.6350,-93.6417,2.0,265.887955,6.27615328,-99999.0,'11133222,11111222,99999999' 
TABS,ioos:station:wmo:42051:1,1999-10-01T22:00:00Z,29.6350,-93.6417,2.0,270.0004209,8.49,-99999.0,'11133222,11111222,99999999' 
TABS,ioos:station:wmo:42051:1,1999-10-01T22:30:00Z,29.6350,-93.6417,2.0,263.8673709,9.735707473,-99999.0,'11133222,11111222,99999999' 
TABS,ioos:station:wmo:42051:1,1999-10-01T23:00:00Z,29.6350,-93.6417,2.0,251.2860906,9.755741899,-99999.0,'11133222,11111222,99999999' 
TABS,ioos:station:wmo:42051:1,1999-10-01T23:30:00Z,29.6350,-93.6417,2.0,255.7768785,9.686924176,-99999.0,'11133222,11111222,99999999' 
TABS,ioos:station:wmo:42051:1,1999-10-02T00:00:00Z,29.6350,-93.6417,2.0,259.4016292,11.36384618,-99999.0,'11111222,11111222,99999999' 
TABS,ioos:station:wmo:42051:1,1999-10-02T00:30:00Z,29.6350,-93.6417,2.0,269.2786149,11.92094375,-99999.0,'11111222,11111222,99999999' 
TABS,ioos:station:wmo:42051:1,1999-10-02T01:00:00Z,29.6350,-93.6417,2.0,269.230212,11.17100712,-99999.0,'11111222,11111222,99999999' 
TABS,ioos:station:wmo:42051:1,1999-10-02T01:30:00Z,29.6350,-93.6417,2.0,258.3420359,10.34335536,-99999.0,'11111222,11111222,99999999' 
TABS,ioos:station:wmo:42051:1,1999-10-02T02:00:00Z,29.6350,-93.6417,2.0,257.996434,10.04972636,-99999.0,'11111222,11111222,99999999' 
TABS,ioos:station:wmo:42051:1,1999-10-02T02:30:00Z,29.6350,-93.6417,2.0,253.6070149,10.55922819,-99999.0,'11111222,11111222,99999999' 
TABS,ioos:station:wmo:42051:1,1999-10-02T03:00:00Z,29.6350,-93.6417,2.0,253.737362,11.17720001,-99999.0,'11111222,11111222,99999999' 
TABS,ioos:station:wmo:42051:1,1999-10-02T03:30:00Z,29.6350,-93.6417,2.0,247.8227309,13.03423569,-99999.0,'11111222,11111222,99999999' 
TABS,ioos:station:wmo:42051:1,1999-10-02T04:00:00Z,29.6350,-93.6417,2.0,246.1349009,15.47288273,-99999.0,'11111222,11111222,99999999' 
TABS,ioos:station:wmo:42051:1,1999-10-02T04:30:00Z,29.6350,-93.6417,2.0,236.5018166,13.22690062,-99999.0,'11111222,11111222,99999999' 
TABS,ioos:station:wmo:42051:1,1999-10-02T05:00:00Z,29.6350,-93.6417,2.0,236.5100115,12.6860711,-99999.0,'11111222,11111222,99999999' 
TABS,ioos:station:wmo:42051:1,1999-10-02T05:30:00Z,29.6350,-93.6417,2.0,223.4477189,11.48762813,-99999.0,'11111222,11111222,99999999' 
TABS,ioos:station:wmo:42051:1,1999-10-02T06:00:00Z,29.6350,-93.6417,2.0,223.868996,10.75011628,-99999.0,'11111222,11111222,99999999' 
TABS,ioos:station:wmo:42051:1,1999-10-02T06:30:00Z,29.6350,-93.6417,2.0,214.5536833,11.037015,-99999.0,'11111222,11111222,99999999' 
TABS,ioos:station:wmo:42051:1,1999-10-02T07:00:00Z,29.6350,-93.6417,2.0,219.2929093,10.59547545,-99999.0,'11111222,11111222,99999999' 
TABS,ioos:station:wmo:42051:1,1999-10-02T07:30:00Z,29.6350,-93.6417,2.0,206.9545389,9.861287948,-99999.0,'11133222,11111222,99999999' 
TABS,ioos:station:wmo:42051:1,1999-10-02T08:00:00Z,29.6350,-93.6417,2.0,199.2544498,9.946381251,-99999.0,'11133222,11111222,99999999' 
TABS,ioos:station:wmo:42051:1,1999-10-02T08:30:00Z,29.6350,-93.6417,2.0,188.1298729,10.53589104,-99999.0,'11111222,11111222,99999999' 
TABS,ioos:station:wmo:42051:1,1999-10-02T09:00:00Z,29.6350,-93.6417,2.0,194.9375568,11.56067905,-99999.0,'11111222,11111222,99999999' 
TABS,ioos:station:wmo:42051:1,1999-10-02T09:30:00Z,29.6350,-93.6417,2.0,192.6709929,12.21756113,-99999.0,'11111222,11111222,99999999' 
TABS,ioos:station:wmo:42051:1,1999-10-02T10:00:00Z,29.6350,-93.6417,2.0,189.9446662,12.1018387,-99999.0,'11111222,11111222,99999999' 
TABS,ioos:station:wmo:42051:1,1999-10-02T10:30:00Z,29.6350,-93.6417,2.0,194.6115535,10.62359638,-99999.0,'11111222,11111222,99999999' 
TABS,ioos:station:wmo:42051:1,1999-10-02T11:00:00Z,29.6350,-93.6417,2.0,187.8811235,9.772307813,-99999.0,'11133222,11111222,99999999' 
TABS,ioos:station:wmo:42051:1,1999-10-02T11:30:00Z,29.6350,-93.6417,2.0,192.3138399,8.393098355,-99999.0,'11133222,11111222,99999999' 
TABS,ioos:station:wmo:42051:1,1999-10-02T12:00:00Z,29.6350,-93.6417,2.0,189.4505474,8.160765895,-99999.0,'11133222,11111222,99999999' 
TABS,ioos:station:wmo:42051:1,1999-10-02T12:30:00Z,29.6350,-93.6417,2.0,181.1769317,7.301540933,-99999.0,'11133222,11111222,99999999' 
TABS,ioos:station:wmo:42051:1,1999-10-02T13:00:00Z,29.6350,-93.6417,2.0,205.7344651,9.258293579,-99999.0,'11133222,11111222,99999999' 
TABS,ioos:station:wmo:42051:1,1999-10-02T13:30:00Z,29.6350,-93.6417,2.0,210.0922384,9.812568471,-99999.0,'11133222,11111222,99999999' 
TABS,ioos:station:wmo:42051:1,1999-10-02T14:00:00Z,29.6350,-93.6417,2.0,221.6765716,10.97861558,-99999.0,'11111222,11111222,99999999' 
TABS,ioos:station:wmo:42051:1,1999-10-02T14:30:00Z,29.6350,-93.6417,2.0,207.8269722,8.933023005,-99999.0,'11133222,11111222,99999999' 
TABS,ioos:station:wmo:42051:1,1999-10-02T15:00:00Z,29.6350,-93.6417,2.0,210.6117749,12.29325018,-99999.0,'11111222,11111222,99999999' 
TABS,ioos:station:wmo:42051:1,1999-10-02T15:30:00Z,29.6350,-93.6417,2.0,207.3832321,9.392443771,-99999.0,'11133222,11111222,99999999' 
TABS,ioos:station:wmo:42051:1,1999-10-02T16:00:00Z,29.6350,-93.6417,2.0,213.6897783,10.20371011,-99999.0,'11111222,11111222,99999999' 
TABS,ioos:station:wmo:42051:1,1999-10-02T16:30:00Z,29.6350,-93.6417,2.0,205.89883,11.92799229,-99999.0,'11111222,11111222,99999999' 
TABS,ioos:station:wmo:42051:1,1999-10-02T17:00:00Z,29.6350,-93.6417,2.0,215.2846357,11.85853701,-99999.0,'11111222,11111222,99999999' 
TABS,ioos:station:wmo:42051:1,1999-10-02T17:30:00Z,29.6350,-93.6417,2.0,212.4897594,11.65403364,-99999.0,'11111222,11111222,99999999' 
TABS,ioos:station:wmo:42051:1,1999-10-02T18:00:00Z,29.6350,-93.6417,2.0,221.7073026,14.77463367,-99999.0,'11111222,11111222,99999999' 
TABS,ioos:station:wmo:42051:1,1999-10-02T18:30:00Z,29.6350,-93.6417,2.0,216.676117,9.476054031,-99999.0,'11133222,11111222,99999999' 
TABS,ioos:station:wmo:42051:1,1999-10-02T19:00:00Z,29.6350,-93.6417,2.0,216.427741,7.780231359,-99999.0,'11133222,11111222,99999999' 
TABS,ioos:station:wmo:42051:1,1999-10-02T19:30:00Z,29.6350,-93.6417,2.0,214.978822,7.273960407,-99999.0,'11133222,11111222,99999999' 
TABS,ioos:station:wmo:42051:1,1999-10-02T20:00:00Z,29.6350,-93.6417,2.0,214.0791854,6.121258041,-99999.0,'11133222,11111222,99999999' 
TABS,ioos:station:wmo:42051:1,1999-10-02T20:30:00Z,29.6350,-93.6417,2.0,208.0322789,5.064118877,-99999.0,'11133222,11111222,99999999' 
TABS,ioos:station:wmo:42051:1,1999-10-02T21:00:00Z,29.6350,-93.6417,2.0,209.9514439,4.466519898,-99999.0,'11133222,11111222,99999999' 
TABS,ioos:station:wmo:42051:1,1999-10-02T21:30:00Z,29.6350,-93.6417,2.0,211.5906943,4.543269748,-99999.0,'11133222,11111222,99999999' 
TABS,ioos:station:wmo:42051:1,1999-10-02T22:00:00Z,29.6350,-93.6417,2.0,197.592173,3.440930107,-99999.0,'11133222,11111222,99999999' 
TABS,ioos:station:wmo:42051:1,1999-10-02T22:30:00Z,29.6350,-93.6417,2.0,203.4799735,3.73965239,-99999.0,'11133222,11111222,99999999' 
TABS,ioos:station:wmo:42051:1,1999-10-02T23:00:00Z,29.6350,-93.6417,2.0,187.811703,3.310724996,-99999.0,'11133222,11111222,99999999' 
TABS,ioos:station:wmo:42051:1,1999-10-02T23:30:00Z,29.6350,-93.6417,2.0,191.9353642,5.02871753,-99999.0,'11133222,11111222,99999999' 
TABS,ioos:station:wmo:42051:1,1999-10-03T00:00:00Z,29.6350,-93.6417,2.0,206.1045825,7.795184411,-99999.0,'11133222,11111222,99999999' 
TABS,ioos:station:wmo:42051:1,1999-10-03T00:30:00Z,29.6350,-93.6417,2.0,226.1531321,10.53802638,-99999.0,'11111222,11111222,99999999' 
TABS,ioos:station:wmo:42051:1,1999-10-03T01:00:00Z,29.6350,-93.6417,2.0,227.3529757,10.33247308,-99999.0,'11111222,11111222,99999999' 
TABS,ioos:station:wmo:42051:1,1999-10-03T01:30:00Z,29.6350,-93.6417,2.0,230.6081164,8.6824075,-99999.0,'11133222,11111222,99999999' 
TABS,ioos:station:wmo:42051:1,1999-10-03T02:00:00Z,29.6350,-93.6417,2.0,216.5065496,8.522171085,-99999.0,'11133222,11111222,99999999' 
TABS,ioos:station:wmo:42051:1,1999-10-03T02:30:00Z,29.6350,-93.6417,2.0,226.1768264,10.32593821,-99999.0,'11111222,11111222,99999999' 
TABS,ioos:station:wmo:42051:1,1999-10-03T03:00:00Z,29.6350,-93.6417,2.0,223.8462366,10.53802638,-99999.0,'11111222,11111222,99999999' 
TABS,ioos:station:wmo:42051:1,1999-10-03T03:30:00Z,29.6350,-93.6417,2.0,223.8225422,10.32593821,-99999.0,'11111222,11111222,99999999' 
TABS,ioos:station:wmo:42051:1,1999-10-03T04:00:00Z,29.6350,-93.6417,2.0,222.5970805,10.1205237,-99999.0,'11111222,11111222,99999999' 
TABS,ioos:station:wmo:42051:1,1999-10-03T04:30:00Z,29.6350,-93.6417,2.0,223.1813856,9.805437267,-99999.0,'11133222,11111222,99999999' 
TABS,ioos:station:wmo:42051:1,1999-10-03T05:00:00Z,29.6350,-93.6417,2.0,208.3509033,8.465394261,-99999.0,'11133222,11111222,99999999' 
TABS,ioos:station:wmo:42051:1,1999-10-03T05:30:00Z,29.6350,-93.6417,2.0,210.5372652,9.683078023,-99999.0,'11133222,11111222,99999999' 
TABS,ioos:station:wmo:42051:1,1999-10-03T06:00:00Z,29.6350,-93.6417,2.0,209.003551,7.672190039,-99999.0,'11133222,11111222,99999999' 
TABS,ioos:station:wmo:42051:1,1999-10-03T06:30:00Z,29.6350,-93.6417,2.0,204.1948348,8.003024428,-99999.0,'11133222,11111222,99999999' 
TABS,ioos:station:wmo:42051:1,1999-10-03T07:00:00Z,29.6350,-93.6417,2.0,196.1254288,6.984819253,-99999.0,'11133222,11111222,99999999' 
TABS,ioos:station:wmo:42051:1,1999-10-03T07:30:00Z,29.6350,-93.6417,2.0,176.0755956,6.575416337,-99999.0,'11133222,11111222,99999999' 
TABS,ioos:station:wmo:42051:1,1999-10-03T08:00:00Z,29.6350,-93.6417,2.0,175.2030018,7.175130661,-99999.0,'11133222,11111222,99999999' 
TABS,ioos:station:wmo:42051:1,1999-10-03T08:30:00Z,29.6350,-93.6417,2.0,170.1445957,6.952596637,-99999.0,'11133222,11111222,99999999' 
TABS,ioos:station:wmo:42051:1,1999-10-03T09:00:00Z,29.6350,-93.6417,2.0,163.5252091,6.840847901,-99999.0,'11133222,11111222,99999999' 
TABS,ioos:station:wmo:42051:1,1999-10-03T09:30:00Z,29.6350,-93.6417,2.0,165.655851,7.22524048,-99999.0,'11133222,11111222,99999999' 
TABS,ioos:station:wmo:42051:1,1999-10-03T10:00:00Z,29.6350,-93.6417,2.0,152.9133528,7.862340618,-99999.0,'11133222,11111222,99999999' 
TABS,ioos:station:wmo:42051:1,1999-10-03T10:30:00Z,29.6350,-93.6417,2.0,154.8327529,8.065661783,-99999.0,'11133222,11111222,99999999' 
TABS,ioos:station:wmo:42051:1,1999-10-03T11:00:00Z,29.6350,-93.6417,2.0,163.3358693,7.776593084,-99999.0,'11133222,11111222,99999999' 
TABS,ioos:station:wmo:42051:1,1999-10-03T11:30:00Z,29.6350,-93.6417,2.0,156.7680961,9.075902159,-99999.0,'11133222,11111222,99999999' 
TABS,ioos:station:wmo:42051:1,1999-10-03T12:00:00Z,29.6350,-93.6417,2.0,161.5875035,8.010049937,-99999.0,'11133222,11111222,99999999' 
TABS,ioos:station:wmo:42051:1,1999-10-03T12:30:00Z,29.6350,-93.6417,2.0,182.0598957,8.345393939,-99999.0,'11133222,11111222,99999999' 
TABS,ioos:station:wmo:42051:1,1999-10-03T13:00:00Z,29.6350,-93.6417,2.0,206.5647786,6.663482573,-99999.0,'11133222,11111222,99999999' 
TABS,ioos:station:wmo:42051:1,1999-10-03T13:30:00Z,29.6350,-93.6417,2.0,200.0505835,6.504229393,-99999.0,'11133222,11111222,99999999' 
TABS,ioos:station:wmo:42051:1,1999-10-03T14:00:00Z,29.6350,-93.6417,2.0,198.0584628,6.742121328,-99999.0,'11133222,11111222,99999999' 
TABS,ioos:station:wmo:42051:1,1999-10-03T14:30:00Z,29.6350,-93.6417,2.0,190.7630316,6.372103263,-99999.0,'11133222,11111222,99999999' 
TABS,ioos:station:wmo:42051:1,1999-10-03T15:00:00Z,29.6350,-93.6417,2.0,211.3343585,7.153355856,-99999.0,'11133222,11111222,99999999' 
TABS,ioos:station:wmo:42051:1,1999-10-03T15:30:00Z,29.6350,-93.6417,2.0,208.6224197,7.473285757,-99999.0,'11133222,11111222,99999999' 
TABS,ioos:station:wmo:42051:1,1999-10-03T16:00:00Z,29.6350,-93.6417,2.0,204.0911982,7.667913667,-99999.0,'11133222,11111222,99999999' 
TABS,ioos:station:wmo:42051:1,1999-10-03T16:30:00Z,29.6350,-93.6417,2.0,213.9786008,8.803203962,-99999.0,'11133222,11111222,99999999' 
TABS,ioos:station:wmo:42051:1,1999-10-03T17:00:00Z,29.6350,-93.6417,2.0,234.9372982,14.01297256,-99999.0,'11111222,11111222,99999999' 
TABS,ioos:station:wmo:42051:1,1999-10-03T17:30:00Z,29.6350,-93.6417,2.0,238.4335176,14.5181576,-99999.0,'11111222,11111222,99999999' 
TABS,ioos:station:wmo:42051:1,1999-10-03T18:00:00Z,29.6350,-93.6417,2.0,250.6447971,17.53076439,-99999.0,'11111222,11111222,99999999' 
TABS,ioos:station:wmo:42051:1,1999-10-03T18:30:00Z,29.6350,-93.6417,2.0,247.7860288,14.97114558,-99999.0,'11111222,11111222,99999999' 
TABS,ioos:station:wmo:42051:1,1999-10-03T19:00:00Z,29.6350,-93.6417,2.0,245.7100411,10.13738132,-99999.0,'11111222,11111222,99999999' 
TABS,ioos:station:wmo:42051:1,1999-10-03T19:30:00Z,29.6350,-93.6417,2.0,244.3586332,8.596563267,-99999.0,'11133222,11111222,99999999' 
TABS,ioos:station:wmo:42051:1,1999-10-03T20:00:00Z,29.6350,-93.6417,2.0,244.4922356,7.268459259,-99999.0,'11133222,11111222,99999999' 
TABS,ioos:station:wmo:42051:1,1999-10-03T20:30:00Z,29.6350,-93.6417,2.0,241.6871293,6.599469676,-99999.0,'11133222,11111222,99999999' 
TABS,ioos:station:wmo:42051:1,1999-10-03T21:00:00Z,29.6350,-93.6417,2.0,237.0990991,6.038484909,-99999.0,'11133222,11111222,99999999' 
TABS,ioos:station:wmo:42051:1,1999-10-03T21:30:00Z,29.6350,-93.6417,2.0,229.9224882,4.861614958,-99999.0,'11133222,11111222,99999999' 
TABS,ioos:station:wmo:42051:1,1999-10-03T22:00:00Z,29.6350,-93.6417,2.0,215.2487054,4.383754099,-99999.0,'11133222,11111222,99999999' 
TABS,ioos:station:wmo:42051:1,1999-10-03T22:30:00Z,29.6350,-93.6417,2.0,220.0631756,3.697742555,-99999.0,'11133222,11111222,99999999' 
TABS,ioos:station:wmo:42051:1,1999-10-03T23:00:00Z,29.6350,-93.6417,2.0,202.2215488,3.543162429,-99999.0,'11133222,11111222,99999999' 
TABS,ioos:station:wmo:42051:1,1999-10-03T23:30:00Z,29.6350,-93.6417,2.0,205.9700355,6.462584622,-99999.0,'11133222,11111222,99999999' 
TABS,ioos:station:wmo:42051:1,1999-10-04T00:00:00Z,29.6350,-93.6417,2.0,188.9360038,5.72954623,-99999.0,'11133222,11111222,99999999' 
TABS,ioos:station:wmo:42051:1,1999-10-04T00:30:00Z,29.6350,-93.6417,2.0,192.6709929,6.108780566,-99999.0,'11133222,11111222,99999999' 
TABS,ioos:station:wmo:42051:1,1999-10-04T01:00:00Z,29.6350,-93.6417,2.0,221.4009246,6.759127163,-99999.0,'11133222,11111222,99999999' 
TABS,ioos:station:wmo:42051:1,1999-10-04T01:30:00Z,29.6350,-93.6417,2.0,195.1316185,5.707906797,-99999.0,'11133222,11111222,99999999' 
TABS,ioos:station:wmo:42051:1,1999-10-04T02:00:00Z,29.6350,-93.6417,2.0,208.7190849,7.138101989,-99999.0,'11133222,11111222,99999999' 
TABS,ioos:station:wmo:42051:1,1999-10-04T02:30:00Z,29.6350,-93.6417,2.0,216.6321894,7.240062154,-99999.0,'11133222,11111222,99999999' 
TABS,ioos:station:wmo:42051:1,1999-10-04T03:00:00Z,29.6350,-93.6417,2.0,231.5086255,7.422971103,-99999.0,'11133222,11111222,99999999' 
TABS,ioos:station:wmo:42051:1,1999-10-04T03:30:00Z,29.6350,-93.6417,2.0,219.901843,8.355698654,-99999.0,'11133222,11111222,99999999' 
TABS,ioos:station:wmo:42051:1,1999-10-04T04:00:00Z,29.6350,-93.6417,2.0,226.7834013,10.22264643,-99999.0,'11111222,11111222,99999999' 
TABS,ioos:station:wmo:42051:1,1999-10-04T04:30:00Z,29.6350,-93.6417,2.0,218.0422322,8.697821566,-99999.0,'11133222,11111222,99999999' 
TABS,ioos:station:wmo:42051:1,1999-10-04T05:00:00Z,29.6350,-93.6417,2.0,207.5925416,7.729094384,-99999.0,'11133222,11111222,99999999' 
TABS,ioos:station:wmo:42051:1,1999-10-04T05:30:00Z,29.6350,-93.6417,2.0,210.9446202,5.211842285,-99999.0,'11133222,11111222,99999999' 
TABS,ioos:station:wmo:42051:1,1999-10-04T06:00:00Z,29.6350,-93.6417,2.0,187.7259581,6.620098187,-99999.0,'11133222,11111222,99999999' 
TABS,ioos:station:wmo:42051:1,1999-10-04T06:30:00Z,29.6350,-93.6417,2.0,177.3813862,6.566856173,-99999.0,'11133222,11111222,99999999' 
TABS,ioos:station:wmo:42051:1,1999-10-04T07:00:00Z,29.6350,-93.6417,2.0,181.2804029,6.711676393,-99999.0,'11133222,11111222,99999999' 
TABS,ioos:station:wmo:42051:1,1999-10-04T07:30:00Z,29.6350,-93.6417,2.0,196.9671949,7.161745597,-99999.0,'11133222,11111222,99999999' 
TABS,ioos:station:wmo:42051:1,1999-10-04T08:00:00Z,29.6350,-93.6417,2.0,195.4900864,7.263855725,-99999.0,'11133222,11111222,99999999' 
TABS,ioos:station:wmo:42051:1,1999-10-04T08:30:00Z,29.6350,-93.6417,2.0,223.7879221,9.696602498,-99999.0,'11133222,11111222,99999999' 
TABS,ioos:station:wmo:42051:1,1999-10-04T09:00:00Z,29.6350,-93.6417,2.0,210.6557457,10.21803308,-99999.0,'11111222,11111222,99999999' 
TABS,ioos:station:wmo:42051:1,1999-10-04T09:30:00Z,29.6350,-93.6417,2.0,188.7292643,7.840829038,-99999.0,'11133222,11111222,99999999' 
TABS,ioos:station:wmo:42051:1,1999-10-04T10:00:00Z,29.6350,-93.6417,2.0,185.6082216,6.13938922,-99999.0,'11133222,11111222,99999999' 
TABS,ioos:station:wmo:42051:1,1999-10-04T10:30:00Z,29.6350,-93.6417,2.0,187.9044978,6.471491327,-99999.0,'11133222,11111222,99999999' 
TABS,ioos:station:wmo:42051:1,1999-10-04T11:00:00Z,29.6350,-93.6417,2.0,187.9467515,7.522240358,-99999.0,'11133222,11111222,99999999' 
TABS,ioos:station:wmo:42051:1,1999-10-04T11:30:00Z,29.6350,-93.6417,2.0,191.0208731,6.224805218,-99999.0,'11133222,11111222,99999999' 
TABS,ioos:station:wmo:42051:1,1999-10-04T12:00:00Z,29.6350,-93.6417,2.0,191.0682149,6.979835242,-99999.0,'11133222,11111222,99999999' 
TABS,ioos:station:wmo:42051:1,1999-10-04T12:30:00Z,29.6350,-93.6417,2.0,184.4286481,5.827400793,-99999.0,'11133222,11111222,99999999' 
TABS,ioos:station:wmo:42051:1,1999-10-04T13:00:00Z,29.6350,-93.6417,2.0,198.7432864,8.807071023,-99999.0,'11133222,11111222,99999999' 
TABS,ioos:station:wmo:42051:1,1999-10-04T13:30:00Z,29.6350,-93.6417,2.0,198.4133402,8.484391552,-99999.0,'11133222,11111222,99999999' 
TABS,ioos:station:wmo:42051:1,1999-10-04T14:00:00Z,29.6350,-93.6417,2.0,205.9700355,6.462584622,-99999.0,'11133222,11111222,99999999' 
TABS,ioos:station:wmo:42051:1,1999-10-04T14:30:00Z,29.6350,-93.6417,2.0,208.50459,7.794927838,-99999.0,'11133222,11111222,99999999' 
TABS,ioos:station:wmo:42051:1,1999-10-04T15:00:00Z,29.6350,-93.6417,2.0,227.1348214,8.540708402,-99999.0,'11133222,11111222,99999999' 
TABS,ioos:station:wmo:42051:1,1999-10-04T15:30:00Z,29.6350,-93.6417,2.0,233.7726402,10.33865078,-99999.0,'11111222,11111222,99999999' 
TABS,ioos:station:wmo:42051:1,1999-10-04T16:00:00Z,29.6350,-93.6417,2.0,225.4846419,11.69596512,-99999.0,'11111222,11111222,99999999' 